Air Quality Table

TIMESTAMP NO2 SO2 O3 PM10 PM2.5 CO TEMP HUM AIRPRES WS WD NO BENZENE
2022-08-08 17:00 14.73 µg/m3 0.66 µg/m3 96.65 µg/m3 25.58 µg/m3 16.71 µg/m3 0.57 mg/m3 29.85 °C 75.78 % 1,010.88 mbar 3.13 m/s 58.52 Deg 3.21 µg/m3 N/A
2022-08-08 16:00 12.03 µg/m3 0.51 µg/m3 99.63 µg/m3 24 µg/m3 16.85 µg/m3 0.58 mg/m3 29.81 °C 75.7 % 1,010.78 mbar 3.28 m/s 57.51 Deg 2.41 µg/m3 N/A
2022-08-08 15:00 9.87 µg/m3 0.36 µg/m3 93.73 µg/m3 24.27 µg/m3 16.81 µg/m3 0.56 mg/m3 29.6 °C 76.68 % 1,010.76 mbar 3.71 m/s 54.08 Deg 2.65 µg/m3 N/A
2022-08-08 14:00 14.37 µg/m3 0.29 µg/m3 99.7 µg/m3 23.33 µg/m3 17.3 µg/m3 0.57 mg/m3 29.48 °C 79.32 % 1,011.26 mbar 3.84 m/s 57.9 Deg 3.47 µg/m3 N/A
2022-08-08 13:00 14 µg/m3 0.56 µg/m3 104.26 µg/m3 25.17 µg/m3 17.27 µg/m3 0.58 mg/m3 29.1 °C 81.86 % 1,011.25 mbar 3.79 m/s 55.9 Deg 2.97 µg/m3 N/A
2022-08-08 12:00 17.71 µg/m3 0.62 µg/m3 86.44 µg/m3 23.41 µg/m3 15.11 µg/m3 0.58 mg/m3 28.93 °C 81.44 % 1,011.42 mbar 3.6 m/s 59.13 Deg 4.55 µg/m3 N/A
2022-08-08 11:00 17.3 µg/m3 0.46 µg/m3 75.24 µg/m3 22.81 µg/m3 14.33 µg/m3 0.58 mg/m3 28.75 °C 79.25 % 1,011.46 mbar 3.36 m/s 56.41 Deg 5.37 µg/m3 N/A
2022-08-08 10:00 19.11 µg/m3 0.58 µg/m3 69.05 µg/m3 22.34 µg/m3 13.59 µg/m3 0.59 mg/m3 28.9 °C 75.24 % 1,011.34 mbar 3.19 m/s 54.43 Deg 6.63 µg/m3 N/A
2022-08-08 09:00 32.63 µg/m3 0.44 µg/m3 46.34 µg/m3 32.43 µg/m3 16.76 µg/m3 0.58 mg/m3 28.47 °C 80.1 % 1,011.01 mbar 2.35 m/s 52.64 Deg 19.13 µg/m3 N/A
2022-08-08 08:00 26.1 µg/m3 0.99 µg/m3 31.53 µg/m3 37.71 µg/m3 18.74 µg/m3 0.61 mg/m3 27.44 °C 86.85 % 1,010.70 mbar 1.34 m/s 45.48 Deg 24.77 µg/m3 N/A
2022-08-08 07:00 41.2 µg/m3 1.62 µg/m3 4.39 µg/m3 43.32 µg/m3 22.48 µg/m3 0.7 mg/m3 25.58 °C 93.64 % 1,010.20 mbar 0.29 m/s 294.41 Deg 47.92 µg/m3 N/A
2022-08-08 06:00 33.26 µg/m3 1.3 µg/m3 2.07 µg/m3 34.83 µg/m3 16.27 µg/m3 0.64 mg/m3 25.01 °C 98.14 % 1,009.81 mbar 0.5 m/s 223.8 Deg 68.44 µg/m3 N/A
2022-08-08 05:00 35.62 µg/m3 0.78 µg/m3 4.34 µg/m3 23.52 µg/m3 14.51 µg/m3 0.46 mg/m3 25.56 °C 98.39 % 1,009.44 mbar 0.57 m/s 249.3 Deg 40.39 µg/m3 N/A
2022-08-08 04:00 20.64 µg/m3 0.15 µg/m3 21.1 µg/m3 20.13 µg/m3 12.69 µg/m3 0.42 mg/m3 25.55 °C 97.53 % 1,009.14 mbar 0.74 m/s 225.21 Deg 8.87 µg/m3 N/A
2022-08-08 03:00 29.88 µg/m3 -0 µg/m3 33 µg/m3 18.88 µg/m3 12.24 µg/m3 0.26 mg/m3 25.96 °C 96.65 % 1,009.25 mbar 1.31 m/s 241.28 Deg 5.26 µg/m3 N/A
2022-08-08 02:00 12.01 µg/m3 0.12 µg/m3 25.38 µg/m3 19 µg/m3 12.08 µg/m3 0.42 mg/m3 26.16 °C 95.49 % 1,009.35 mbar 1.04 m/s 234.4 Deg 2.58 µg/m3 N/A
2022-08-08 01:00 20.18 µg/m3 -0.02 µg/m3 29.48 µg/m3 21.43 µg/m3 13.05 µg/m3 0.47 mg/m3 26.45 °C 94.06 % 1,009.63 mbar 0.91 m/s 221.79 Deg 6.14 µg/m3 N/A
2022-08-08 00:00 21.72 µg/m3 0.03 µg/m3 31.69 µg/m3 22.02 µg/m3 12.48 µg/m3 0.51 mg/m3 26.68 °C 92.6 % 1,010.00 mbar 1.46 m/s 233.23 Deg 6.18 µg/m3 N/A
2022-08-07 23:00 23.24 µg/m3 0.18 µg/m3 32.98 µg/m3 22.95 µg/m3 13.13 µg/m3 0.49 mg/m3 26.9 °C 90.96 % 1,010.09 mbar 1.66 m/s 234.06 Deg 6.35 µg/m3 N/A
2022-08-07 22:00 35.11 µg/m3 0.51 µg/m3 30.43 µg/m3 24.18 µg/m3 13.66 µg/m3 0.56 mg/m3 27.03 °C 88.72 % 1,010.10 mbar 1.36 m/s 236.28 Deg 14.22 µg/m3 N/A
2022-08-07 21:00 31.31 µg/m3 0.36 µg/m3 35.72 µg/m3 22.32 µg/m3 12.35 µg/m3 0.51 mg/m3 27.67 °C 83.08 % 1,009.95 mbar 1.05 m/s 258.14 Deg 6.84 µg/m3 N/A
2022-08-07 20:00 28.66 µg/m3 0.66 µg/m3 56.58 µg/m3 21.84 µg/m3 12.13 µg/m3 0.49 mg/m3 28.49 °C 75.79 % 1,009.51 mbar 1.33 m/s 323.9 Deg 7.13 µg/m3 N/A
2022-08-07 19:00 15.81 µg/m3 0.31 µg/m3 77.74 µg/m3 19.71 µg/m3 11.94 µg/m3 0.48 mg/m3 28.98 °C 72.41 % 1,009.03 mbar 2.73 m/s 103.86 Deg 4.01 µg/m3 N/A
2022-08-07 18:00 21.02 µg/m3 0.53 µg/m3 78.63 µg/m3 18.06 µg/m3 10.47 µg/m3 0.46 mg/m3 30.49 °C 61.51 % 1,008.78 mbar 2.59 m/s 282.9 Deg 7.08 µg/m3 N/A
2022-08-07 17:00 18.33 µg/m3 0.73 µg/m3 92.35 µg/m3 12.62 µg/m3 7.94 µg/m3 0.47 mg/m3 31.45 °C 43.77 % 1,009.03 mbar 2.63 m/s 272.31 Deg 4.12 µg/m3 N/A
2022-08-07 16:00 16.02 µg/m3 0.65 µg/m3 97.29 µg/m3 13.63 µg/m3 8.73 µg/m3 0.49 mg/m3 30.7 °C 56.19 % 1,009.10 mbar 2.67 m/s 285.28 Deg 3.94 µg/m3 N/A
2022-08-07 15:00 13.15 µg/m3 0.3 µg/m3 95.88 µg/m3 15.2 µg/m3 8.77 µg/m3 0.53 mg/m3 29.73 °C 68.11 % 1,009.18 mbar 2.59 m/s 54.84 Deg 2.72 µg/m3 N/A
2022-08-07 14:00 13.9 µg/m3 0.53 µg/m3 94.68 µg/m3 16.36 µg/m3 9.31 µg/m3 0.56 mg/m3 29.7 °C 70.47 % 1,009.45 mbar 2.87 m/s 206.19 Deg 2.83 µg/m3 N/A
2022-08-07 13:00 16.6 µg/m3 0.53 µg/m3 82.57 µg/m3 17.3 µg/m3 9.98 µg/m3 0.59 mg/m3 29.69 °C 71.49 % 1,009.95 mbar 2.39 m/s 125.08 Deg 4.4 µg/m3 N/A
2022-08-07 12:00 16.14 µg/m3 0.53 µg/m3 78.79 µg/m3 18.19 µg/m3 10.06 µg/m3 0.61 mg/m3 29.27 °C 73.49 % 1,010.30 mbar 2.44 m/s 66.55 Deg 4.41 µg/m3 N/A
2022-08-07 11:00 21.45 µg/m3 0.88 µg/m3 75.89 µg/m3 20.68 µg/m3 11.18 µg/m3 0.62 mg/m3 28.95 °C 75.65 % 1,010.60 mbar 2.59 m/s 69.28 Deg 6.7 µg/m3 N/A
2022-08-07 10:00 19.88 µg/m3 0.77 µg/m3 72.19 µg/m3 20.54 µg/m3 10.7 µg/m3 0.61 mg/m3 28.4 °C 78.43 % 1,010.62 mbar 2.48 m/s 62.96 Deg 4.88 µg/m3 N/A
2022-08-07 09:00 22.36 µg/m3 0.67 µg/m3 66.04 µg/m3 19.3 µg/m3 10.43 µg/m3 0.62 mg/m3 28.34 °C 78.89 % 1,010.32 mbar 2.07 m/s 61.76 Deg 8.32 µg/m3 N/A
2022-08-07 08:00 19.38 µg/m3 0.26 µg/m3 63.7 µg/m3 17.64 µg/m3 10.07 µg/m3 0.5 mg/m3 27.87 °C 81.57 % 1,009.98 mbar 2.41 m/s 58.21 Deg 4.36 µg/m3 N/A
2022-08-07 07:00 13.16 µg/m3 0.5 µg/m3 62.31 µg/m3 17.82 µg/m3 10.65 µg/m3 0.42 mg/m3 27.26 °C 87.45 % 1,009.58 mbar 2.99 m/s 44.68 Deg 2.5 µg/m3 N/A
2022-08-07 06:00 25.37 µg/m3 0.28 µg/m3 28.08 µg/m3 27.64 µg/m3 13.19 µg/m3 0.43 mg/m3 25.46 °C 90.13 % 1,009.28 mbar 0.91 m/s 238.62 Deg 9.5 µg/m3 N/A
2022-08-07 05:00 21.99 µg/m3 0.17 µg/m3 29.02 µg/m3 20.59 µg/m3 11.15 µg/m3 0.4 mg/m3 25.07 °C 87.39 % 1,009.02 mbar 1.01 m/s 238.41 Deg 5.82 µg/m3 N/A
2022-08-07 04:00 26.51 µg/m3 -0.01 µg/m3 50.42 µg/m3 20.76 µg/m3 10.59 µg/m3 0.35 mg/m3 26.2 °C 81.25 % 1,009.01 mbar 0.69 m/s 229.37 Deg 2.98 µg/m3 N/A
2022-08-07 03:00 32.43 µg/m3 -0.05 µg/m3 65.52 µg/m3 19.43 µg/m3 10.2 µg/m3 0.22 mg/m3 27.31 °C 73.94 % 1,009.29 mbar 1.72 m/s 239.8 Deg 1.49 µg/m3 N/A
2022-08-07 02:00 12.11 µg/m3 -0.06 µg/m3 63.76 µg/m3 18.27 µg/m3 9.96 µg/m3 0.36 mg/m3 27.19 °C 82.12 % 1,009.70 mbar 2.55 m/s 242.97 Deg 1.77 µg/m3 N/A
2022-08-07 01:00 8.42 µg/m3 0.06 µg/m3 44.47 µg/m3 18.98 µg/m3 11.04 µg/m3 0.34 mg/m3 27.25 °C 84.3 % 1,010.25 mbar 3.25 m/s 252.33 Deg 0.82 µg/m3 N/A
2022-08-07 00:00 7.47 µg/m3 -0.12 µg/m3 63.93 µg/m3 16.29 µg/m3 11.02 µg/m3 0.34 mg/m3 27.33 °C 84.31 % 1,010.80 mbar 4.08 m/s 260.67 Deg 1.21 µg/m3 N/A
2022-08-06 23:00 8.05 µg/m3 -0.09 µg/m3 59.1 µg/m3 16.08 µg/m3 10.29 µg/m3 0.35 mg/m3 27.58 °C 83.73 % 1,011.05 mbar 4.08 m/s 261.24 Deg 1.49 µg/m3 N/A
2022-08-06 22:00 10.54 µg/m3 -0.07 µg/m3 56.02 µg/m3 14.5 µg/m3 9.24 µg/m3 0.37 mg/m3 27.75 °C 80.81 % 1,011.23 mbar 2.99 m/s 270.22 Deg 2.23 µg/m3 N/A
2022-08-06 21:00 12.77 µg/m3 0.07 µg/m3 57.17 µg/m3 13.94 µg/m3 9.1 µg/m3 0.38 mg/m3 28.03 °C 80.28 % 1,011.22 mbar 2.79 m/s 282.13 Deg 3.52 µg/m3 N/A
2022-08-06 20:00 14.07 µg/m3 0.01 µg/m3 54.35 µg/m3 13.52 µg/m3 8.45 µg/m3 0.37 mg/m3 28.29 °C 79.28 % 1,010.97 mbar 2.73 m/s 283.23 Deg 4.4 µg/m3 N/A
2022-08-06 19:00 12.21 µg/m3 -0.2 µg/m3 55.94 µg/m3 14.84 µg/m3 8.39 µg/m3 0.37 mg/m3 28.77 °C 77.99 % 1,010.79 mbar 3.32 m/s 284.89 Deg 4.81 µg/m3 N/A
2022-08-06 18:00 11.16 µg/m3 0.01 µg/m3 57.16 µg/m3 12.95 µg/m3 8.28 µg/m3 0.37 mg/m3 29.41 °C 76.87 % 1,010.61 mbar 4.15 m/s 278.74 Deg 3.88 µg/m3 N/A
2022-08-06 17:00 10.39 µg/m3 0.02 µg/m3 61.18 µg/m3 14.2 µg/m3 8.68 µg/m3 0.37 mg/m3 30 °C 73.19 % 1,010.72 mbar 4.75 m/s 270.86 Deg 3.99 µg/m3 N/A
2022-08-06 16:00 11.07 µg/m3 0.24 µg/m3 69.38 µg/m3 11.87 µg/m3 7.89 µg/m3 0.37 mg/m3 30.48 °C 60.52 % 1,011.08 mbar 4.29 m/s 281.83 Deg 3.91 µg/m3 N/A
2022-08-06 15:00 8.91 µg/m3 -0.03 µg/m3 77.1 µg/m3 14.09 µg/m3 8.3 µg/m3 0.38 mg/m3 30.77 °C 58.06 % 1,011.49 mbar 4.74 m/s 273.23 Deg 2.51 µg/m3 N/A
2022-08-06 14:00 11.77 µg/m3 0.31 µg/m3 83.94 µg/m3 14.2 µg/m3 8.97 µg/m3 0.39 mg/m3 31.08 °C 57.14 % 1,011.81 mbar 4.27 m/s 267.27 Deg 3.54 µg/m3 N/A
2022-08-06 13:00 16.35 µg/m3 0.09 µg/m3 84.27 µg/m3 15.03 µg/m3 8.87 µg/m3 0.39 mg/m3 30.94 °C 57.12 % 1,012.04 mbar 4.41 m/s 275.03 Deg 6.25 µg/m3 N/A
2022-08-06 12:00 16.91 µg/m3 0.37 µg/m3 84.38 µg/m3 17.16 µg/m3 9.24 µg/m3 0.4 mg/m3 30.66 °C 59.84 % 1,012.24 mbar 3.79 m/s 278.78 Deg 4.81 µg/m3 N/A
2022-08-06 11:00 18.76 µg/m3 0.55 µg/m3 77.98 µg/m3 17.46 µg/m3 9.48 µg/m3 0.4 mg/m3 29.9 °C 67.85 % 1,012.36 mbar 3.7 m/s 288.52 Deg 6.24 µg/m3 N/A
2022-08-06 10:00 15.1 µg/m3 0.17 µg/m3 75.96 µg/m3 16.36 µg/m3 9.15 µg/m3 0.39 mg/m3 29.38 °C 69.21 % 1,012.25 mbar 3.69 m/s 285.08 Deg 4.03 µg/m3 N/A
2022-08-06 09:00 14.67 µg/m3 0.11 µg/m3 73.38 µg/m3 18.4 µg/m3 10.03 µg/m3 0.37 mg/m3 28.77 °C 72.58 % 1,012.14 mbar 3.49 m/s 289.43 Deg 4.15 µg/m3 N/A
2022-08-06 08:00 16.89 µg/m3 0.17 µg/m3 69.12 µg/m3 20.59 µg/m3 9.88 µg/m3 0.36 mg/m3 28.41 °C 72.67 % 1,012.06 mbar 3.42 m/s 278.47 Deg 4.32 µg/m3 N/A
2022-08-06 07:00 13.17 µg/m3 0.22 µg/m3 68.9 µg/m3 15.29 µg/m3 10.28 µg/m3 0.37 mg/m3 27.45 °C 81.45 % 1,012.04 mbar 2.83 m/s 279.08 Deg 2.37 µg/m3 N/A
2022-08-06 06:00 11.11 µg/m3 -0.17 µg/m3 69.5 µg/m3 14.81 µg/m3 9.08 µg/m3 0.39 mg/m3 26.93 °C 86.26 % 1,011.88 mbar 2.5 m/s 277.99 Deg 1.14 µg/m3 N/A
2022-08-06 05:00 10.84 µg/m3 -0.16 µg/m3 69.04 µg/m3 12.66 µg/m3 9.3 µg/m3 0.4 mg/m3 26.8 °C 85.38 % 1,011.58 mbar 2.2 m/s 286.33 Deg 0.79 µg/m3 N/A
2022-08-06 04:00 12.05 µg/m3 -0.11 µg/m3 71.27 µg/m3 14 µg/m3 9.75 µg/m3 0.38 mg/m3 26.77 °C 84.7 % 1,011.68 mbar 2.23 m/s 260.55 Deg 0.92 µg/m3 N/A
2022-08-06 03:00 25.3 µg/m3 -0.13 µg/m3 61.25 µg/m3 14.62 µg/m3 9.9 µg/m3 0.26 mg/m3 26.55 °C 85.76 % 1,011.87 mbar 1.72 m/s 254.92 Deg 0.93 µg/m3 N/A
2022-08-06 02:00 13.95 µg/m3 0.03 µg/m3 45.63 µg/m3 15.77 µg/m3 9.88 µg/m3 0.48 mg/m3 26.27 °C 88.08 % 1,011.95 mbar 1.28 m/s 236.06 Deg 1.78 µg/m3 N/A
2022-08-06 01:00 20.79 µg/m3 0.11 µg/m3 6 µg/m3 17.6 µg/m3 10.45 µg/m3 0.52 mg/m3 26.4 °C 87.25 % 1,012.19 mbar 1.59 m/s 240.05 Deg 3.49 µg/m3 N/A
2022-08-06 00:00 26.3 µg/m3 0.18 µg/m3 53.07 µg/m3 15.9 µg/m3 10.08 µg/m3 0.52 mg/m3 26.9 °C 84.3 % 1,012.58 mbar 1.71 m/s 234.63 Deg 8.06 µg/m3 N/A
2022-08-05 23:00 18.87 µg/m3 0.2 µg/m3 62.24 µg/m3 14.7 µg/m3 9.59 µg/m3 0.51 mg/m3 27.35 °C 81.17 % 1,012.59 mbar 2.23 m/s 253.11 Deg 2.2 µg/m3 N/A
2022-08-05 22:00 30.27 µg/m3 0.39 µg/m3 47.33 µg/m3 20.92 µg/m3 11.25 µg/m3 0.55 mg/m3 27.55 °C 73.03 % 1,012.78 mbar 1.75 m/s 233.65 Deg 7.07 µg/m3 N/A
2022-08-05 21:00 34.13 µg/m3 0.3 µg/m3 52.6 µg/m3 20.45 µg/m3 11.19 µg/m3 0.51 mg/m3 27.77 °C 70.52 % 1,012.75 mbar 1.23 m/s 230.14 Deg 6.2 µg/m3 N/A
2022-08-05 20:00 23.03 µg/m3 0.39 µg/m3 62.05 µg/m3 18.67 µg/m3 11.12 µg/m3 0.45 mg/m3 28.54 °C 67.48 % 1,012.32 mbar 1.49 m/s 268.83 Deg 2.44 µg/m3 N/A
2022-08-05 19:00 23.07 µg/m3 0.46 µg/m3 69.19 µg/m3 15.53 µg/m3 9.77 µg/m3 0.45 mg/m3 29.37 °C 64.24 % 1,012.09 mbar 2.51 m/s 284.44 Deg 6.54 µg/m3 N/A
2022-08-05 18:00 20.38 µg/m3 0.51 µg/m3 83.11 µg/m3 18.48 µg/m3 11.33 µg/m3 0.43 mg/m3 30.13 °C 56.98 % 1,012.18 mbar 3.42 m/s 274.1 Deg 5.3 µg/m3 N/A
2022-08-05 17:00 19.58 µg/m3 0.87 µg/m3 85.39 µg/m3 16.93 µg/m3 11.14 µg/m3 0.44 mg/m3 30.77 °C 51.35 % 1,012.53 mbar 3.96 m/s 268.41 Deg 5.08 µg/m3 N/A
2022-08-05 16:00 18.8 µg/m3 0.72 µg/m3 85.07 µg/m3 17.8 µg/m3 9.68 µg/m3 0.47 mg/m3 30.97 °C 50.68 % 1,012.78 mbar 4.39 m/s 270.67 Deg 5.31 µg/m3 N/A
2022-08-05 15:00 15.18 µg/m3 0.49 µg/m3 86.65 µg/m3 20.6 µg/m3 9.8 µg/m3 0.51 mg/m3 30.97 °C 56.25 % 1,013.10 mbar 3.79 m/s 276.38 Deg 4.55 µg/m3 N/A
2022-08-05 14:00 14.5 µg/m3 0.53 µg/m3 85.71 µg/m3 18.84 µg/m3 9.63 µg/m3 0.53 mg/m3 30.95 °C 54.81 % 1,013.39 mbar 3.29 m/s 227.4 Deg 4.2 µg/m3 N/A
2022-08-05 13:00 12.94 µg/m3 0.53 µg/m3 82.31 µg/m3 14.89 µg/m3 8.38 µg/m3 0.53 mg/m3 30.14 °C 54 % 1,013.44 mbar 4.45 m/s 43.15 Deg 4.68 µg/m3 N/A
2022-08-05 12:00 14.62 µg/m3 0.48 µg/m3 77.52 µg/m3 17.68 µg/m3 8.02 µg/m3 0.56 mg/m3 29.05 °C 68.14 % 1,013.65 mbar 4.27 m/s 47.68 Deg 4.37 µg/m3 N/A
2022-08-05 11:00 20.38 µg/m3 0.49 µg/m3 65.78 µg/m3 23.44 µg/m3 8.8 µg/m3 0.57 mg/m3 28.56 °C 74.69 % 1,013.81 mbar 4.03 m/s 54.34 Deg 6.11 µg/m3 N/A
2022-08-05 10:00 24.81 µg/m3 0.53 µg/m3 57.91 µg/m3 21.83 µg/m3 8.79 µg/m3 0.57 mg/m3 28.97 °C 72.34 % 1,013.75 mbar 3.83 m/s 54.36 Deg 12.9 µg/m3 N/A
2022-08-05 09:00 20.07 µg/m3 0.86 µg/m3 63.74 µg/m3 24.73 µg/m3 10.36 µg/m3 0.56 mg/m3 29.42 °C 64 % 1,013.67 mbar 2.33 m/s 274.79 Deg 7.5 µg/m3 N/A
2022-08-05 08:00 24.09 µg/m3 0.98 µg/m3 53.3 µg/m3 20.38 µg/m3 10.03 µg/m3 0.61 mg/m3 28.78 °C 64.35 % 1,013.44 mbar 1.46 m/s 314.12 Deg 9.51 µg/m3 N/A
2022-08-05 07:00 49.03 µg/m3 1.42 µg/m3 18.07 µg/m3 47 µg/m3 24.22 µg/m3 0.71 mg/m3 26.8 °C 83.71 % 1,013.22 mbar 1.01 m/s 229.12 Deg 32.28 µg/m3 N/A
2022-08-05 06:00 47.33 µg/m3 1.65 µg/m3 4.55 µg/m3 43.66 µg/m3 21.37 µg/m3 0.69 mg/m3 25.15 °C 90.7 % 1,013.06 mbar 0.94 m/s 226.48 Deg 59.92 µg/m3 N/A
2022-08-05 05:00 41.72 µg/m3 0.76 µg/m3 13.01 µg/m3 27.16 µg/m3 17.02 µg/m3 0.54 mg/m3 25 °C 90.01 % 1,012.92 mbar 0.82 m/s 226.4 Deg 33.52 µg/m3 N/A
2022-08-05 04:00 30.53 µg/m3 0.33 µg/m3 28.02 µg/m3 25.56 µg/m3 17.34 µg/m3 0.48 mg/m3 25.4 °C 89.04 % 1,012.91 mbar 0.76 m/s 223.28 Deg 6.42 µg/m3 N/A
2022-08-05 03:00 39.9 µg/m3 0.18 µg/m3 43.68 µg/m3 22.82 µg/m3 16.16 µg/m3 0.3 mg/m3 25.47 °C 88.27 % 1,013.18 mbar 0.83 m/s 227.86 Deg 7.99 µg/m3 N/A
2022-08-05 02:00 16.23 µg/m3 0.21 µg/m3 47.19 µg/m3 20.89 µg/m3 15 µg/m3 0.41 mg/m3 25.78 °C 86.49 % 1,013.50 mbar 0.81 m/s 225.39 Deg 2.49 µg/m3 N/A
2022-08-05 01:00 23.13 µg/m3 0.17 µg/m3 49.27 µg/m3 21.54 µg/m3 14.12 µg/m3 0.45 mg/m3 26.51 °C 85.16 % 1,013.78 mbar 0.67 m/s 217.51 Deg 3.01 µg/m3 N/A
2022-08-05 00:00 22.39 µg/m3 0.36 µg/m3 48.58 µg/m3 20.68 µg/m3 12.6 µg/m3 0.47 mg/m3 26.45 °C 81.09 % 1,013.94 mbar 0.86 m/s 223.95 Deg 3.49 µg/m3 N/A
2022-08-04 23:00 38.67 µg/m3 0.49 µg/m3 45 µg/m3 20.61 µg/m3 12.35 µg/m3 0.5 mg/m3 27.16 °C 77.06 % 1,013.91 mbar 0.68 m/s 206.6 Deg 8.42 µg/m3 N/A
2022-08-04 22:00 23.37 µg/m3 0.14 µg/m3 73.56 µg/m3 17.22 µg/m3 10.74 µg/m3 0.48 mg/m3 28.29 °C 75.76 % 1,013.85 mbar 1.24 m/s 73.33 Deg 3.68 µg/m3 N/A
2022-08-04 21:00 14.25 µg/m3 0.4 µg/m3 82.98 µg/m3 16.13 µg/m3 10.85 µg/m3 0.48 mg/m3 28.53 °C 77.21 % 1,013.74 mbar 2.71 m/s 51.43 Deg 1.66 µg/m3 N/A
2022-08-04 20:00 16.55 µg/m3 0.73 µg/m3 92.98 µg/m3 22.46 µg/m3 12.58 µg/m3 0.53 mg/m3 28.93 °C 73.56 % 1,013.24 mbar 2.53 m/s 52.68 Deg 1.91 µg/m3 N/A
2022-08-04 19:00 19.07 µg/m3 0.66 µg/m3 96.73 µg/m3 22.38 µg/m3 12.72 µg/m3 0.52 mg/m3 29.53 °C 71.56 % 1,013.11 mbar 2.17 m/s 58.21 Deg 2.91 µg/m3 N/A
2022-08-04 18:00 22.54 µg/m3 1.02 µg/m3 96.6 µg/m3 21.59 µg/m3 12.43 µg/m3 0.5 mg/m3 30.42 °C 66.09 % 1,013.12 mbar 2.04 m/s 173.48 Deg 6.01 µg/m3 N/A
2022-08-04 17:00 22.86 µg/m3 0.91 µg/m3 102.77 µg/m3 22.87 µg/m3 12.32 µg/m3 0.49 mg/m3 30.59 °C 62.72 % 1,013.13 mbar 2.81 m/s 261.91 Deg 3.84 µg/m3 N/A
2022-08-04 16:00 18.63 µg/m3 2.17 µg/m3 102.63 µg/m3 21.12 µg/m3 13.35 µg/m3 0.54 mg/m3 30.01 °C 67.08 % 1,013.03 mbar 2.01 m/s 133.7 Deg 4.43 µg/m3 N/A
2022-08-04 15:00 11.38 µg/m3 1.11 µg/m3 112.84 µg/m3 18.66 µg/m3 12.82 µg/m3 0.51 mg/m3 29.31 °C 72.66 % 1,013.15 mbar 3.38 m/s 53.75 Deg 2.06 µg/m3 N/A
2022-08-04 14:00 13.02 µg/m3 1.12 µg/m3 110.07 µg/m3 19.24 µg/m3 12.66 µg/m3 0.52 mg/m3 29.76 °C 72.78 % 1,013.38 mbar 3.49 m/s 55.61 Deg 2.3 µg/m3 N/A
2022-08-04 13:00 14.98 µg/m3 0.99 µg/m3 101.04 µg/m3 18.91 µg/m3 12.11 µg/m3 0.54 mg/m3 29.46 °C 69.19 % 1,013.77 mbar 3.62 m/s 57.73 Deg 3.75 µg/m3 N/A
2022-08-04 12:00 15.91 µg/m3 0.96 µg/m3 99.81 µg/m3 20.03 µg/m3 12.27 µg/m3 0.52 mg/m3 29.04 °C 68.58 % 1,014.02 mbar 3.52 m/s 54.44 Deg 4.43 µg/m3 N/A
2022-08-04 11:00 17.83 µg/m3 0.89 µg/m3 94.58 µg/m3 18.72 µg/m3 11.76 µg/m3 0.55 mg/m3 28.67 °C 71.35 % 1,014.08 mbar 3.17 m/s 53.97 Deg 4.72 µg/m3 N/A
2022-08-04 10:00 20.53 µg/m3 0.65 µg/m3 85.03 µg/m3 21.06 µg/m3 12.39 µg/m3 0.54 mg/m3 28.26 °C 78.3 % 1,013.89 mbar 2.57 m/s 59.63 Deg 8.28 µg/m3 N/A
2022-08-04 09:00 29.32 µg/m3 1.11 µg/m3 70.09 µg/m3 23.56 µg/m3 11.95 µg/m3 0.58 mg/m3 28.15 °C 76.27 % 1,013.60 mbar 2.36 m/s 60.75 Deg 10.58 µg/m3 N/A
2022-08-04 08:00 32.05 µg/m3 1.08 µg/m3 52.27 µg/m3 26.49 µg/m3 12.68 µg/m3 0.58 mg/m3 27.79 °C 76.99 % 1,013.22 mbar 1.87 m/s 57.35 Deg 12.78 µg/m3 N/A
2022-08-04 07:00 53.59 µg/m3 1.69 µg/m3 3.92 µg/m3 65.22 µg/m3 24.62 µg/m3 0.71 mg/m3 26.16 °C 80.75 % 1,012.84 mbar 0.54 m/s 173.7 Deg 86.82 µg/m3 N/A
2022-08-04 06:00 50.86 µg/m3 1.3 µg/m3 4.88 µg/m3 48.87 µg/m3 20.29 µg/m3 0.61 mg/m3 24.12 °C 85.76 % 1,012.60 mbar 0.89 m/s 232.13 Deg 74.74 µg/m3 N/A
2022-08-04 05:00 45.4 µg/m3 0.52 µg/m3 9.22 µg/m3 25.67 µg/m3 13.99 µg/m3 0.46 mg/m3 23.99 °C 83.74 % 1,012.39 mbar 0.63 m/s 227.32 Deg 40.1 µg/m3 N/A
2022-08-04 04:00 31.06 µg/m3 0.13 µg/m3 33.83 µg/m3 18.2 µg/m3 11.74 µg/m3 0.4 mg/m3 23.87 °C 83.74 % 1,012.42 mbar 0.89 m/s 235.61 Deg 10.75 µg/m3 N/A
2022-08-04 03:00 35.59 µg/m3 0.06 µg/m3 47.58 µg/m3 16.59 µg/m3 10.6 µg/m3 0.26 mg/m3 24.51 °C 81.92 % 1,012.58 mbar 0.95 m/s 219.93 Deg 5.08 µg/m3 N/A
2022-08-04 02:00 17.25 µg/m3 0.07 µg/m3 44.15 µg/m3 17.23 µg/m3 10.39 µg/m3 0.44 mg/m3 24.78 °C 81.24 % 1,012.83 mbar 0.99 m/s 232.8 Deg 3.43 µg/m3 N/A
2022-08-04 01:00 26.22 µg/m3 0.4 µg/m3 36.67 µg/m3 20.58 µg/m3 11.6 µg/m3 0.47 mg/m3 25.12 °C 80.25 % 1,012.95 mbar 0.83 m/s 230.77 Deg 6.49 µg/m3 N/A
2022-08-04 00:00 32.34 µg/m3 0.37 µg/m3 35.15 µg/m3 26.96 µg/m3 13.29 µg/m3 0.48 mg/m3 25.64 °C 77.3 % 1,013.09 mbar 0.97 m/s 246.69 Deg 6.87 µg/m3 N/A
2022-08-03 23:00 49.43 µg/m3 0.81 µg/m3 40.84 µg/m3 20.57 µg/m3 11.96 µg/m3 0.53 mg/m3 27.43 °C 70.84 % 1,012.92 mbar 0.58 m/s 193.88 Deg 6.92 µg/m3 N/A
2022-08-03 22:00 52.48 µg/m3 0.8 µg/m3 44.71 µg/m3 20.32 µg/m3 12.11 µg/m3 0.49 mg/m3 27.68 °C 68.34 % 1,012.83 mbar 0.55 m/s 180.86 Deg 6.5 µg/m3 N/A
2022-08-03 21:00 31.21 µg/m3 0.97 µg/m3 69.73 µg/m3 21.03 µg/m3 11.13 µg/m3 0.45 mg/m3 28.26 °C 67.16 % 1,012.67 mbar 1.12 m/s 147.08 Deg 4.33 µg/m3 N/A
2022-08-03 20:00 26.24 µg/m3 0.69 µg/m3 76.94 µg/m3 23.42 µg/m3 11.89 µg/m3 0.44 mg/m3 28.71 °C 66.98 % 1,012.27 mbar 1.76 m/s 63.08 Deg 3.88 µg/m3 N/A
2022-08-03 19:00 24.45 µg/m3 0.5 µg/m3 81.68 µg/m3 20.91 µg/m3 11.05 µg/m3 0.45 mg/m3 29.29 °C 65.66 % 1,012.06 mbar 2.29 m/s 63.27 Deg 9.33 µg/m3 N/A
2022-08-03 18:00 10.77 µg/m3 0.51 µg/m3 95.89 µg/m3 17.83 µg/m3 10.34 µg/m3 0.45 mg/m3 29.31 °C 64.55 % 1,011.80 mbar 3.03 m/s 53 Deg 2.04 µg/m3 N/A
2022-08-03 17:00 11.77 µg/m3 0.73 µg/m3 93.15 µg/m3 19.88 µg/m3 10.55 µg/m3 0.47 mg/m3 29.53 °C 66.07 % 1,011.78 mbar 3.42 m/s 54.57 Deg 2.85 µg/m3 N/A
2022-08-03 16:00 10.85 µg/m3 0.82 µg/m3 90.93 µg/m3 17.24 µg/m3 9.99 µg/m3 0.48 mg/m3 29.56 °C 65.42 % 1,011.79 mbar 3.63 m/s 55.16 Deg 2.67 µg/m3 N/A
2022-08-03 15:00 11.67 µg/m3 0.94 µg/m3 101.52 µg/m3 18.73 µg/m3 10.64 µg/m3 0.49 mg/m3 29.41 °C 68.05 % 1,011.94 mbar 3.74 m/s 57.23 Deg 2.38 µg/m3 N/A
2022-08-03 14:00 13.4 µg/m3 0.99 µg/m3 108.68 µg/m3 20.66 µg/m3 12.21 µg/m3 0.5 mg/m3 29.21 °C 69.79 % 1,012.39 mbar 3.78 m/s 55.12 Deg 2.77 µg/m3 N/A
2022-08-03 13:00 16.8 µg/m3 1.78 µg/m3 106.82 µg/m3 23.14 µg/m3 12.64 µg/m3 0.52 mg/m3 29.4 °C 64.25 % 1,012.69 mbar 3.71 m/s 57.81 Deg 4.68 µg/m3 N/A
2022-08-03 12:00 19.5 µg/m3 1.8 µg/m3 99.93 µg/m3 24.78 µg/m3 12.4 µg/m3 0.53 mg/m3 29.32 °C 64.85 % 1,012.97 mbar 3.63 m/s 58.74 Deg 7.08 µg/m3 N/A
2022-08-03 11:00 25.22 µg/m3 1.5 µg/m3 83.91 µg/m3 28.97 µg/m3 12.06 µg/m3 0.53 mg/m3 29.32 °C 64.51 % 1,013.18 mbar 3.46 m/s 62.58 Deg 9.18 µg/m3 N/A
2022-08-03 10:00 25.6 µg/m3 2.13 µg/m3 78.53 µg/m3 27.45 µg/m3 11.59 µg/m3 0.55 mg/m3 28.8 °C 66.24 % 1,013.05 mbar 3.21 m/s 60.69 Deg 7.32 µg/m3 N/A
2022-08-03 09:00 29.89 µg/m3 1.02 µg/m3 62.52 µg/m3 19.67 µg/m3 9.02 µg/m3 0.57 mg/m3 28.37 °C 74.79 % 1,012.79 mbar 2.59 m/s 57.43 Deg 13.6 µg/m3 N/A
2022-08-03 08:00 38.17 µg/m3 1.07 µg/m3 42.88 µg/m3 17.75 µg/m3 8.52 µg/m3 0.56 mg/m3 27.91 °C 79.42 % 1,012.50 mbar 2.51 m/s 55.73 Deg 22.47 µg/m3 N/A
2022-08-03 07:00 46.62 µg/m3 2.12 µg/m3 6.75 µg/m3 64.31 µg/m3 18.52 µg/m3 0.67 mg/m3 26.2 °C 84.18 % 1,012.09 mbar 0.77 m/s 214.34 Deg 80.07 µg/m3 N/A
2022-08-03 06:00 42.07 µg/m3 1.49 µg/m3 0.42 µg/m3 58.85 µg/m3 16.32 µg/m3 0.61 mg/m3 24.41 °C 89.29 % 1,011.64 mbar 0.29 m/s 222.18 Deg 84.3 µg/m3 N/A
2022-08-03 05:00 38.13 µg/m3 0.8 µg/m3 6.17 µg/m3 28.91 µg/m3 10.03 µg/m3 0.43 mg/m3 23.88 °C 89.98 % 1,011.32 mbar 0.79 m/s 236.53 Deg 50.3 µg/m3 N/A
2022-08-03 04:00 26.31 µg/m3 0.13 µg/m3 13.35 µg/m3 12.21 µg/m3 6.54 µg/m3 0.38 mg/m3 24.05 °C 89.55 % 1,011.22 mbar 0.75 m/s 228.42 Deg 12.36 µg/m3 N/A
2022-08-03 03:00 32.49 µg/m3 -0.07 µg/m3 24.08 µg/m3 11.43 µg/m3 6.2 µg/m3 0.27 mg/m3 24.38 °C 88.97 % 1,011.11 mbar 0.95 m/s 235.85 Deg 9.99 µg/m3 N/A
2022-08-03 02:00 12.84 µg/m3 -0.07 µg/m3 22.23 µg/m3 12.43 µg/m3 6.34 µg/m3 0.45 mg/m3 24.74 °C 87.93 % 1,011.45 mbar 0.93 m/s 233.75 Deg 3.19 µg/m3 N/A
2022-08-03 01:00 16.4 µg/m3 -0.06 µg/m3 21.99 µg/m3 12.31 µg/m3 6.49 µg/m3 0.47 mg/m3 25.03 °C 86.93 % 1,011.62 mbar 0.76 m/s 239.28 Deg 3.49 µg/m3 N/A
2022-08-03 00:00 28.35 µg/m3 0.31 µg/m3 19.48 µg/m3 14.28 µg/m3 6.74 µg/m3 0.47 mg/m3 26.04 °C 84.1 % 1,011.75 mbar 0.39 m/s 234.72 Deg 8.22 µg/m3 N/A
2022-08-02 23:00 17.42 µg/m3 -0.12 µg/m3 56.01 µg/m3 11.14 µg/m3 6.04 µg/m3 0.46 mg/m3 27.14 °C 80.69 % 1,011.89 mbar 1.21 m/s 165.14 Deg 4.14 µg/m3 N/A
2022-08-02 22:00 5.06 µg/m3 -0.05 µg/m3 65.6 µg/m3 10.23 µg/m3 5.95 µg/m3 0.43 mg/m3 27.48 °C 82.36 % 1,011.86 mbar 2.08 m/s 43.55 Deg 1.27 µg/m3 N/A
2022-08-02 21:00 7.12 µg/m3 0.11 µg/m3 62.84 µg/m3 11.29 µg/m3 6.44 µg/m3 0.44 mg/m3 27.76 °C 82.3 % 1,011.67 mbar 2.53 m/s 45.79 Deg 1.44 µg/m3 N/A
2022-08-02 20:00 8.26 µg/m3 0.06 µg/m3 58.53 µg/m3 13.73 µg/m3 6.63 µg/m3 0.47 mg/m3 28.3 °C 76.59 % 1,011.19 mbar 2.57 m/s 47.52 Deg 2.16 µg/m3 N/A
2022-08-02 19:00 12.44 µg/m3 0.14 µg/m3 54.81 µg/m3 16.45 µg/m3 7.77 µg/m3 0.43 mg/m3 29.08 °C 71.87 % 1,011.03 mbar 2.13 m/s 99.48 Deg 6.71 µg/m3 N/A
2022-08-02 18:00 15.53 µg/m3 0.22 µg/m3 50.75 µg/m3 18.11 µg/m3 8.19 µg/m3 0.44 mg/m3 29.79 °C 68.09 % 1,010.97 mbar 2.45 m/s 270.71 Deg 6.2 µg/m3 N/A
2022-08-02 17:00 17.09 µg/m3 0.08 µg/m3 53.25 µg/m3 16.28 µg/m3 8.28 µg/m3 0.45 mg/m3 30.09 °C 66.62 % 1,010.92 mbar 3.37 m/s 259.57 Deg 7.29 µg/m3 N/A
2022-08-02 16:00 12.17 µg/m3 -0.05 µg/m3 57.69 µg/m3 17.68 µg/m3 8.65 µg/m3 0.47 mg/m3 30.33 °C 64.59 % 1,010.93 mbar 4.04 m/s 254.43 Deg 5.08 µg/m3 N/A
2022-08-02 15:00 13.77 µg/m3 0.06 µg/m3 58.64 µg/m3 17.86 µg/m3 8.7 µg/m3 0.5 mg/m3 30.53 °C 63.67 % 1,011.13 mbar 3.02 m/s 261.76 Deg 5.78 µg/m3 N/A
2022-08-02 14:00 12.29 µg/m3 0.19 µg/m3 77.33 µg/m3 18.69 µg/m3 9.45 µg/m3 0.52 mg/m3 29.49 °C 68.21 % 1,011.44 mbar 1.61 m/s 176.07 Deg 4.64 µg/m3 N/A
2022-08-02 13:00 13.49 µg/m3 0.16 µg/m3 80.85 µg/m3 18.47 µg/m3 9.72 µg/m3 0.52 mg/m3 29.28 °C 69.42 % 1,011.48 mbar 2.54 m/s 53.3 Deg 7.99 µg/m3 0 µg/m3
2022-08-02 12:00 17.38 µg/m3 0.31 µg/m3 69.91 µg/m3 21.76 µg/m3 10.2 µg/m3 0.53 mg/m3 28.9 °C 70.37 % 1,011.61 mbar 2.74 m/s 56.92 Deg 13.07 µg/m3 0 µg/m3
2022-08-02 11:00 19.36 µg/m3 0.48 µg/m3 68.54 µg/m3 24.62 µg/m3 10.58 µg/m3 0.55 mg/m3 28.75 °C 71.15 % 1,011.86 mbar 2.4 m/s 58.46 Deg 8.9 µg/m3 0 µg/m3
2022-08-02 10:00 15.99 µg/m3 0.25 µg/m3 68.56 µg/m3 21.62 µg/m3 10.32 µg/m3 0.55 mg/m3 28.18 °C 75.26 % 1,011.79 mbar 2.29 m/s 60 Deg 5.42 µg/m3 0 µg/m3
2022-08-02 09:00 16.95 µg/m3 0.16 µg/m3 64.78 µg/m3 20.76 µg/m3 10.09 µg/m3 0.55 mg/m3 28.06 °C 77.02 % 1,011.70 mbar 2.34 m/s 56.73 Deg 6.16 µg/m3 0 µg/m3
2022-08-02 08:00 21.08 µg/m3 0.46 µg/m3 58.02 µg/m3 23.08 µg/m3 11.09 µg/m3 0.55 mg/m3 27.97 °C 79.35 % 1,011.70 mbar 1.28 m/s 50.38 Deg 9.26 µg/m3 0 µg/m3
2022-08-02 07:00 44.25 µg/m3 1.44 µg/m3 9.39 µg/m3 50.36 µg/m3 17.12 µg/m3 0.65 mg/m3 26.67 °C 84.28 % 1,011.49 mbar 0.29 m/s 204.44 Deg 52.47 µg/m3 0 µg/m3
2022-08-02 06:00 47.87 µg/m3 1.31 µg/m3 3.51 µg/m3 41.54 µg/m3 15.3 µg/m3 0.61 mg/m3 25.05 °C 87.26 % 1,011.24 mbar 0.64 m/s 221.7 Deg 61.37 µg/m3 0 µg/m3
2022-08-02 05:00 44.49 µg/m3 0.44 µg/m3 5.01 µg/m3 22.01 µg/m3 12.28 µg/m3 0.52 mg/m3 25.02 °C 87.05 % 1,010.93 mbar 0.65 m/s 251.33 Deg 37.98 µg/m3 0 µg/m3
2022-08-02 04:00 24.32 µg/m3 0.12 µg/m3 35.22 µg/m3 18.02 µg/m3 10.71 µg/m3 0.43 mg/m3 25.36 °C 89.45 % 1,010.84 mbar 0.76 m/s 211.87 Deg 7.14 µg/m3 0 µg/m3
2022-08-02 03:00 30.74 µg/m3 0.11 µg/m3 38.91 µg/m3 17.26 µg/m3 11.07 µg/m3 0.26 mg/m3 25.35 °C 89.13 % 1,011.06 mbar 0.68 m/s 229.34 Deg 5.64 µg/m3 0 µg/m3
2022-08-02 02:00 9.89 µg/m3 -0.12 µg/m3 44.52 µg/m3 17.37 µg/m3 10.99 µg/m3 0.42 mg/m3 25.74 °C 87.41 % 1,011.17 mbar 0.62 m/s 227.26 Deg 1.46 µg/m3 0 µg/m3
2022-08-02 01:00 10.29 µg/m3 0.05 µg/m3 46.37 µg/m3 17.44 µg/m3 10.72 µg/m3 0.39 mg/m3 26.12 °C 85.69 % 1,011.48 mbar 0.82 m/s 206.77 Deg 1.31 µg/m3 0 µg/m3
2022-08-02 00:00 18.79 µg/m3 0.03 µg/m3 48.52 µg/m3 19.06 µg/m3 11.36 µg/m3 0.44 mg/m3 26.76 °C 83.98 % 1,011.84 mbar 0.68 m/s 203.54 Deg 3.23 µg/m3 0 µg/m3
2022-08-01 23:00 22.99 µg/m3 0.03 µg/m3 48.98 µg/m3 19.87 µg/m3 11.57 µg/m3 0.42 mg/m3 27.11 °C 81.05 % 1,012.02 mbar 0.75 m/s 209.55 Deg 4.64 µg/m3 0 µg/m3
2022-08-01 22:00 22.78 µg/m3 0.19 µg/m3 52.89 µg/m3 20.79 µg/m3 11.89 µg/m3 0.44 mg/m3 27.37 °C 78.74 % 1,012.05 mbar 0.67 m/s 209.49 Deg 4.75 µg/m3 0 µg/m3
2022-08-01 21:00 20.67 µg/m3 0.09 µg/m3 62.99 µg/m3 18.28 µg/m3 10.36 µg/m3 0.4 mg/m3 27.83 °C 77.25 % 1,011.52 mbar 1.04 m/s 269.02 Deg 3.06 µg/m3 0 µg/m3
2022-08-01 20:00 17.29 µg/m3 0.31 µg/m3 70.39 µg/m3 18.97 µg/m3 10.22 µg/m3 0.4 mg/m3 28.36 °C 75.36 % 1,011.08 mbar 1.66 m/s 287.23 Deg 3.25 µg/m3 0 µg/m3
2022-08-01 19:00 16.45 µg/m3 0.09 µg/m3 69 µg/m3 18.21 µg/m3 9.37 µg/m3 0.39 mg/m3 28.99 °C 71.28 % 1,010.83 mbar 2.42 m/s 267.79 Deg 2.43 µg/m3 0 µg/m3

It is to be noted that the data is provisional and subject to quality assurance procedures. For validated data kindly refer your request to contact.air@era.org.mt